Flag for Morocco Weather past 2 weeks in Casablanca, Morocco

Now
73 °F

Passing clouds.


Feels Like: 73 °F
Forecast: 72 / 79 °F
Wind: 5 mph from North

Location: Casablanca Airport

Current Time: Aug 2, 2015 at 4:26:28 AM

Latest Report: Aug 2, 2015 at 1:00 AM


Visibility: N/A

Pressure: 29.86 "Hg

Humidity: 83%

Dew point: 68 °F

Location of CasablancaLocation

Historic Weather in Casablanca — Graph

°F

Casablanca temperature yesterday

Maximum temperature yesterday: 77 °F (at 1:00 PM)
Minimum temperature yesterday: 72 °F (at 12:00 AM)
Average temperature yesterday: 74 °F

Past Weeks' High & Low Weather Summary

 TemperatureHumidityPressure
High86 °F (Jul 21, 1:00 PM)100% (Jul 23, 7:00 AM)30.04 "Hg (Jul 23, 7:00 AM)
Low70 °F (Jul 18, 6:00 AM)31% (Jul 21, 12:00 PM)29.83 "Hg (Jul 30, 7:00 PM)
Average76 °F78%29.94 "Hg
* Reported Midnight between Jul 17 and Jul 18 — Aug 2 1:00 AM, Casablanca, Weather by CustomWeather, © 2015

Note: Actual official high and low records may vary slightly from our data, if they occured in-between our weather recording intervals... More about our weather records

Advertising

Casablanca weather history for previous 24 hours

 ConditionsComfort  
Time TempWeatherWind HumidityBarometerVisibility
1:00 AM
Sun, Aug 2
73 °FPassing clouds.5 mph83%29.86 "HgN/A
11:00 PM
Sat, Aug 1
73 °FPassing clouds.8 mph89%29.86 "HgN/A
10:00 PM73 °FPassing clouds.9 mph89%29.86 "HgN/A
9:00 PM75 °FPassing clouds.10 mph78%29.83 "HgN/A
8:00 PM73 °FPartly sunny.12 mph89%29.86 "HgN/A
7:00 PM73 °FPartly sunny.16 mph89%29.92 "HgN/A
6:00 PM75 °FScattered clouds.21 mph83%29.92 "HgN/A
5:00 PM75 °FPassing clouds.14 mph83%29.92 "HgN/A
4:00 PM75 °FPassing clouds.16 mph83%29.92 "HgN/A
3:00 PM77 °FPassing clouds.18 mph79%29.92 "HgN/A
2:00 PM77 °FPassing clouds.16 mph79%29.92 "HgN/A
1:00 PM77 °FPassing clouds.20 mph79%29.92 "HgN/A
12:00 PM75 °FPassing clouds.18 mph78%29.95 "HgN/A
11:00 AM75 °FPassing clouds.18 mph78%29.95 "HgN/A
9:00 AM73 °FScattered clouds.15 mph78%29.95 "HgN/A
8:00 AM72 °FPartly sunny.9 mph78%29.92 "Hg5 mi
7:00 AM72 °FPartly sunny.10 mph78%29.92 "Hg5 mi
Weather by CustomWeather, © 2015

See weather overviewHow to use our weather pages